Location: New York
(40.7140°N, 74.0060°W)
Time: 18:36:30
(UTC-05:00)

ISS - Visible Passes

Search period start: 19 December 2014 00:00
Search period end: 29 December 2014 00:00
Orbit: 404 x 415 km, 51.6° (Epoch: 19 December)

Date Brightness Start Highest point End Pass type
(mag) Time Alt. Az. Time Alt. Az. Time Alt. Az.
19 Dec -1.0 18:00:55 10° NNW 18:02:22 14° N 18:02:22 14° N visible
20 Dec -1.0 17:10:10 10° NNW 17:11:42 13° N 17:13:14 10° NNE visible
20 Dec -0.4 18:46:21 10° NW 18:46:32 11° NNW 18:46:32 11° NNW visible
21 Dec -1.5 17:55:45 10° NNW 17:57:57 19° NNE 17:57:57 19° NNE visible
22 Dec -1.3 17:05:05 10° NNW 17:07:06 15° NNE 17:09:07 10° NE visible
22 Dec -1.0 18:41:04 10° NW 18:42:11 19° NW 18:42:11 19° NW visible
23 Dec -2.4 17:50:19 10° NW 17:53:17 31° NNE 17:53:46 29° NE visible
24 Dec -1.8 16:59:33 10° NNW 17:02:11 22° NNE 17:04:49 10° ENE visible
24 Dec -2.4 18:35:45 10° WNW 18:38:16 47° W 18:38:16 47° W visible
25 Dec -3.4 17:44:45 10° NW 17:48:02 67° NE 17:50:14 19° ESE visible
25 Dec 0.2 19:22:34 10° W 19:23:02 11° WSW 19:23:02 11° WSW visible
26 Dec -1.1 18:30:38 10° WNW 18:33:21 24° SW 18:35:22 14° S visible
27 Dec -2.2 17:39:13 10° WNW 17:42:23 46° SW 17:45:32 10° SSE visible
